Location: Oberkirch
(48.5323°N, 8.0787°E)
Time: 19:50:10
(UTC+00:00)

S-56A Canister/Altair - Pass Details

Date: 17 February 2026
Orbit: 633 x 2484 km, 38.9° (Epoch: 11 March)

Event Time Altitude Azimuth Distance (km) Brightness Sun altitude
Exits shadow 05:25:22 11° 256° (WSW) 3,893 10.5 -11.6°
Maximum altitude 05:32:29 22° 213° (SSW) 3,579 10.7 -10.5°
Drops below altitude 10° 05:41:43 10° 171° (S) 4,920 11.9 -8.9°
Sets 05:47:08 0° 158° (SSE) 6,079 12.6 -8.1°
